Location: Wapato
(46.4478°N, 120.4212°W)
Time: 23:28:36
(UTC+00:00)

Vanguard 1 Rocket - Pass Details

Date: 19 May 2026
Orbit: 656 x 4211 km, 34.3° (Epoch: 7 June)

Event Time Altitude Azimuth Distance (km) Brightness Sun altitude
Rises 03:50:27 0° 273° (W) 5,697 12.6 -3.4°
Reaches altitude 10° 03:54:07 10° 264° (W) 5,126 12.1 -4.0°
Maximum altitude 04:07:49 34° 208° (SSW) 4,738 11.0 -5.9°
Drops below altitude 10° 04:27:52 10° 154° (SSE) 7,373 11.4 -8.6°
Enters shadow 04:31:10 - 151° (SSE) 7,878 11.6 -9.0°
